915  
ASUS42 KFFC 171110  
RWRGA  
WEATHER ROUNDUP FOR GEORGIA  
NATIONAL WEATHER SERVICE PEACHTREE CITY GA  
700 AM EDT THU AUG 17 2017  
 
NOTE: "FAIR" INDICATES FEW OR NO CLOUDS BELOW 12,000 FEET WITH NO  
SIGNIFICANT WEATHER AND/OR S TO VISIBILITY
.  
 
* = USE WITH CAUTION. THE STATIONS MARKED WITH AN ASTERISK MAY NOT  
REPORT WEATHER SUCH AS PRECIPITATION, FOG, OR THUNDER AND ARE NOT  
QUALITY CONTROLLED BY NWS.  
 
THE REMARK "TC" DENOTES TEMPERATURE READING IN DEGREES CELSIUS.  
 
GAZ001>058-171200-  
NORTH GEORGIA  
 
CITY SKY/WX TMP DP RH WIND PRES REMARKS
 
ATLANTA PTCLDY 77 73 87 W7 30.08R  
ATHENS CLEAR 74 73 97 CALM 30.06R  
CHAMBLEE CLEAR 75 73 94 MISG 30.08  
PEACHTREE CITY CLEAR 74 74 100 CALM 30.08R  
ROME PTCLDY 74 74 100 CALM 30.06R  
WEST ATLANTA CLEAR 76 75 97 SW3 30.07R  
GAINESVILLE CLEAR 74 73 97 CALM 30.10R  
CARTERSVILLE MOCLDY 73 73 100 CALM 30.09R  
 
 
CITY SKY/WX TMP DP RH WIND PRES REMARKS
 
LAWRENCEVILLE* CLEAR 73 73 100 CALM 30.08  
MARIETTA MOCLDY 75 72 91 W6 30.08R  
KENNESAW* PTCLDY 76 72 87 CALM 30.09R  
CANTON* CLEAR 73 73 100 CALM 30.11R  

 
 
GAZ059>098-102>109-171200-  
CENTRAL GEORGIA  
 
CITY SKY/WX TMP DP RH WIND PRES REMARKS
 
AUGUSTA-BUSH CLEAR 78 75 90 CALM 30.02R  
AUGUSTA-DANIEL CLEAR 81 72 74 CALM 30.04R  
COLUMBUS CLEAR 78 74 87 NW3 30.06R  
MACON NOT AVBL  
ROBINS AFB CLEAR 75 74 96 CALM 30.05R  
 
 
CITY SKY/WX TMP DP RH WIND PRES REMARKS
 
LAGRANGE* N/A 74 73 98 CALM 30.08R FOG  
SYLVANIA* CLEAR 76 76 100 CALM 30.04R  
MILLEDGEVILLE* CLEAR 75 75 100 CALM 30.06R  

 
 
GAZ099>101-110>166-171200-  
SOUTH GEORGIA  
 
CITY SKY/WX TMP DP RH WIND PRES REMARKS
 
SAVANNAH PTCLDY 79 77 94 CALM 30.04R  
VALDOSTA CLEAR 74 74 100 CALM 30.06R FOG  
ALMA CLEAR 76 74 93 CALM 30.05R  
ST SIMONS CLEAR 81 77 88 W6 30.04R  
FT STEWART CLEAR 77 74 92 CALM 30.02R  
ALBANY CLEAR 77 76 96 CALM 30.08R  
HUNTER AFB CLEAR 78 76 95 CALM 30.01R  
MOODY AFB CLEAR 78 75 91 CALM 30.05R  
BRUNSWICK CLEAR 77 73 88 CALM 30.05R  
 
 
CITY SKY/WX TMP DP RH WIND PRES REMARKS
 
BAINBRIDGE* CLEAR 77 77 100 W3 30.08R  
MOULTRIE* CLEAR 77 73 88 CALM 30.08R  
VIDALIA* CLEAR 77 75 94 CALM 30.05R  
WAYCROSS* CLEAR 76 73 90 CALM 30.06R  
DOUGLAS* N/A 75 73 94 CALM 30.07R  

 
 
 
CLICK HERE TO GO TO PREVIOUS BULLETINS.

The Nexlab GA Page Main Text Page